| time (UTC) | temp C | wind direction | speed KPH | gust KPH | rain 1hr cm | rain 24hr cm | rain mn cm | humidity % | barometer mb |
| 20260506070243 | 7 | 14 | 3.2 | 3.2 | 0.00 | 0.00 | 0.00 | 78 | 1008.1 |
| 20260506061743 | 9 | 27 | 1.6 | 1.6 | 0.00 | 0.00 | 0.00 | 73 | 1007.5 |
| 20260506061243 | 10 | 353 | 1.6 | 1.6 | 0.00 | 0.00 | 0.00 | 60 | 1007.5 |
| 20260506060244 | 10 | 327 | 1.6 | 1.6 | 0.00 | 0.00 | 0.00 | 58 | 1007.5 |
| 20260506051243 | 10 | 264 | 1.6 | 1.6 | 0.00 | 0.00 | 0.00 | 54 | 1007.5 |
| 20260506050244 | 10 | 282 | 1.6 | 1.6 | 0.00 | 0.00 | 0.00 | 53 | 1007.5 |
| 20260506044743 | 10 | 298 | 1.6 | 1.6 | 0.00 | 0.00 | 0.00 | 53 | 1007.5 |
| 20260506043743 | 10 | 267 | 1.6 | 1.6 | 0.00 | 0.00 | 0.00 | 52 | 1007.5 |
| 20260506042743 | 10 | 274 | 1.6 | 1.6 | 0.00 | 0.00 | 0.00 | 53 | 1007.8 |
| 20260506042243 | 10 | 269 | 1.6 | 1.6 | 0.00 | 0.00 | 0.00 | 53 | 1007.8 |
| 20260506041243 | 10 | 285 | 1.6 | 1.6 | 0.00 | 0.00 | 0.10 | 53 | 1007.5 |
| 20260506040243 | 10 | 261 | 1.6 | 1.6 | 0.00 | 0.00 | 0.10 | 52 | 1007.5 |
| 20260506035243 | 11 | 273 | 1.6 | 1.6 | 0.00 | 0.00 | 0.10 | 52 | 1007.8 |
| 20260506034743 | 11 | 229 | 1.6 | 1.6 | 0.00 | 0.00 | 0.10 | 53 | 1007.8 |
| 20260506033743 | 11 | 331 | 1.6 | 1.6 | 0.00 | 0.00 | 0.10 | 52 | 1007.5 |
| 20260506032743 | 11 | 268 | 1.6 | 1.6 | 0.00 | 0.00 | 0.10 | 52 | 1007.8 |
| 20260506031743 | 11 | 310 | 1.6 | 1.6 | 0.00 | 0.00 | 0.10 | 54 | 1007.8 |
| 20260506030744 | 11 | 274 | 1.6 | 1.6 | 0.00 | 0.00 | 0.10 | 56 | 1007.8 |
| 20260506030243 | 11 | 251 | 1.6 | 1.6 | 0.00 | 0.00 | 0.10 | 58 | 1007.8 |
| 20260506025243 | 11 | 270 | 0.0 | 0.0 | 0.00 | 0.00 | 0.10 | 59 | 1008.1 |
| 20260506024743 | 11 | 280 | 0.0 | 0.0 | 0.00 | 0.00 | 0.10 | 61 | 1008.1 |
| 20260506023744 | 11 | 270 | 0.0 | 0.0 | 0.00 | 0.00 | 0.10 | 64 | 1007.8 |
| 20260506022744 | 11 | 268 | 0.0 | 0.0 | 0.00 | 0.00 | 0.10 | 70 | 1007.5 |
| 20260506022243 | 11 | 315 | 0.0 | 0.0 | 0.00 | 0.00 | 0.10 | 71 | 1007.8 |
| 20260506021243 | 11 | 235 | 0.0 | 0.0 | 0.00 | 0.00 | 0.10 | 72 | 1007.5 |
| 20260506020244 | 11 | 181 | 0.0 | 0.0 | 0.00 | 0.00 | 0.10 | 75 | 1007.5 |
| 20260506015744 | 11 | 210 | 0.0 | 0.0 | 0.00 | 0.00 | 0.10 | 75 | 1007.5 |
| 20260506015244 | 11 | 83 | 0.0 | 0.0 | 0.00 | 0.00 | 0.10 | 76 | 1007.5 |
| 20260506014244 | 11 | 247 | 0.0 | 0.0 | 0.00 | 0.00 | 0.10 | 77 | 1007.5 |
| 20260506013744 | 11 | 239 | 0.0 | 0.0 | 0.00 | 0.00 | 0.10 | 77 | 1007.5 |
| 20260506012744 | 11 | 107 | 0.0 | 0.0 | 0.00 | 0.00 | 0.10 | 77 | 1007.5 |
| 20260506012244 | 11 | 218 | 0.0 | 0.0 | 0.00 | 0.00 | 0.10 | 77 | 1007.5 |
| 20260506011244 | 11 | 235 | 0.0 | 0.0 | 0.00 | 0.00 | 0.10 | 77 | 1007.5 |
| 20260506010743 | 11 | 193 | 0.0 | 0.0 | 0.00 | 0.00 | 0.10 | 77 | 1007.5 |
| 20260506005744 | 11 | 206 | 0.0 | 0.0 | 0.00 | 0.00 | 0.10 | 76 | 1007.5 |
| 20260506004744 | 11 | 215 | 0.0 | 0.0 | 0.00 | 0.00 | 0.10 | 76 | 1007.1 |
| 20260506003747 | 11 | 229 | 0.0 | 0.0 | 0.00 | 0.00 | 0.10 | 76 | 1007.1 |
| 20260506002744 | 11 | 247 | 0.0 | 0.0 | 0.00 | 0.00 | 0.10 | 76 | 1007.1 |
| 20260506002244 | 11 | 199 | 0.0 | 0.0 | 0.00 | 0.00 | 0.10 | 76 | 1007.1 |
| 20260506001245 | 11 | 193 | 0.0 | 0.0 | 0.00 | 0.00 | 0.10 | 75 | 1006.8 |
| 20260506000744 | 12 | 152 | 0.0 | 0.0 | 0.00 | 0.00 | 0.10 | 75 | 1006.8 |
| 20260506000244 | 12 | 244 | 0.0 | 0.0 | 0.00 | 0.00 | 0.10 | 75 | 1006.8 |
| 20260505235244 | 12 | 198 | 1.6 | 1.6 | 0.00 | 0.00 | 0.10 | 75 | 1006.4 |
| 20260505234243 | 12 | 262 | 1.6 | 1.6 | 0.00 | 0.00 | 0.10 | 74 | 1006.4 |
| 20260505233244 | 12 | 224 | 1.6 | 1.6 | 0.00 | 0.00 | 0.10 | 75 | 1006.4 |
| 20260505232744 | 12 | 184 | 1.6 | 1.6 | 0.00 | 0.00 | 0.10 | 76 | 1006.8 |
| 20260505231744 | 12 | 197 | 1.6 | 1.6 | 0.00 | 0.00 | 0.10 | 76 | 1006.8 |
| 20260505230744 | 12 | 193 | 1.6 | 1.6 | 0.00 | 0.00 | 0.10 | 76 | 1006.8 |
| 20260505225745 | 12 | 194 | 1.6 | 1.6 | 0.00 | 0.00 | 0.10 | 75 | 1006.8 |
| 20260505224744 | 12 | 221 | 1.6 | 1.6 | 0.00 | 0.00 | 0.10 | 75 | 1006.8 |
| 20260505224244 | 12 | 175 | 1.6 | 1.6 | 0.00 | 0.00 | 0.10 | 77 | 1007.1 |
| 20260505223244 | 12 | 173 | 1.6 | 1.6 | 0.00 | 0.00 | 0.10 | 78 | 1007.1 |
| 20260505222745 | 12 | 193 | 1.6 | 1.6 | 0.00 | 0.00 | 0.10 | 79 | 1007.1 |
| 20260505221744 | 11 | 185 | 1.6 | 1.6 | 0.00 | 0.00 | 0.10 | 79 | 1006.8 |
| 20260505220745 | 11 | 137 | 3.2 | 3.2 | 0.00 | 0.00 | 0.10 | 80 | 1006.8 |
| 20260505215744 | 11 | 149 | 3.2 | 3.2 | 0.00 | 0.00 | 0.10 | 80 | 1006.8 |
| 20260505215244 | 11 | 149 | 3.2 | 3.2 | 0.00 | 0.00 | 0.10 | 80 | 1006.8 |
| 20260505214244 | 11 | 150 | 3.2 | 3.2 | 0.00 | 0.00 | 0.10 | 79 | 1007.1 |
| 20260505213744 | 11 | 147 | 3.2 | 3.2 | 0.00 | 0.00 | 0.10 | 80 | 1007.1 |
| 20260505212744 | 11 | 151 | 3.2 | 3.2 | 0.00 | 0.00 | 0.10 | 79 | 1006.8 |
| 20260505212245 | 11 | 182 | 3.2 | 3.2 | 0.00 | 0.00 | 0.10 | 79 | 1006.8 |
| 20260505211244 | 11 | 153 | 3.2 | 3.2 | 0.00 | 0.00 | 0.10 | 79 | 1007.1 |
| 20260505210744 | 11 | 249 | 3.2 | 3.2 | 0.00 | 0.00 | 0.10 | 79 | 1006.8 |
| 20260505205745 | 11 | 150 | 3.2 | 3.2 | 0.00 | 0.00 | 0.10 | 79 | 1007.1 |
| 20260505205244 | 11 | 156 | 3.2 | 3.2 | 0.00 | 0.00 | 0.10 | 79 | 1006.8 |
| 20260505204245 | 10 | 160 | 1.6 | 1.6 | 0.00 | 0.00 | 0.10 | 79 | 1007.1 |
| 20260505203744 | 10 | 148 | 1.6 | 1.6 | 0.00 | 0.00 | 0.10 | 80 | 1007.1 |
| 20260505202744 | 9 | 89 | 1.6 | 1.6 | 0.00 | 0.00 | 0.10 | 80 | 1007.1 |
| 20260505202244 | 8 | 88 | 1.6 | 1.6 | 0.00 | 0.00 | 0.10 | 80 | 1007.5 |
| 20260505201744 | 8 | 112 | 1.6 | 1.6 | 0.00 | 0.00 | 0.10 | 80 | 1007.5 |
| 20260505200744 | 8 | 127 | 1.6 | 1.6 | 0.00 | 0.00 | 0.10 | 79 | 1007.5 |
| 20260505200244 | 8 | 138 | 3.2 | 3.2 | 0.00 | 0.00 | 0.10 | 78 | 1007.5 |
| 20260505195244 | 8 | 92 | 1.6 | 1.6 | 0.00 | 0.00 | 0.10 | 78 | 1007.5 |
| 20260505194244 | 8 | 76 | 3.2 | 3.2 | 0.00 | 0.00 | 0.10 | 76 | 1007.5 |
| 20260505193244 | 8 | 50 | 3.2 | 3.2 | 0.00 | 0.00 | 0.10 | 79 | 1007.8 |
| 20260505192744 | 8 | 30 | 3.2 | 3.2 | 0.00 | 0.00 | 0.10 | 78 | 1007.8 |
| 20260505192244 | 8 | 30 | 3.2 | 3.2 | 0.00 | 0.00 | 0.10 | 78 | 1007.5 |
| 20260505191244 | 8 | 46 | 3.2 | 3.2 | 0.00 | 0.00 | 0.10 | 76 | 1007.5 |
| 20260505190244 | 8 | 56 | 3.2 | 3.2 | 0.00 | 0.00 | 0.10 | 75 | 1007.5 |
| 20260505185244 | 8 | 63 | 3.2 | 3.2 | 0.00 | 0.00 | 0.10 | 77 | 1007.1 |
| 20260505184244 | 8 | 31 | 3.2 | 3.2 | 0.00 | 0.00 | 0.10 | 76 | 1007.1 |
| 20260505183244 | 8 | 32 | 3.2 | 3.2 | 0.00 | 0.00 | 0.10 | 77 | 1007.1 |
| 20260505182745 | 8 | 32 | 3.2 | 3.2 | 0.00 | 0.00 | 0.10 | 76 | 1007.1 |
| 20260505182245 | 8 | 40 | 3.2 | 3.2 | 0.00 | 0.00 | 0.10 | 77 | 1007.1 |
| 20260505181245 | 8 | 38 | 3.2 | 3.2 | 0.00 | 0.00 | 0.10 | 76 | 1007.1 |
| 20260505180245 | 8 | 36 | 1.6 | 1.6 | 0.05 | 0.00 | 0.13 | 77 | 1007.1 |
| 20260505175744 | 8 | 36 | 1.6 | 1.6 | 0.05 | 0.00 | 0.13 | 77 | 1006.8 |
| 20260505174745 | 8 | 58 | 1.6 | 1.6 | 0.08 | 0.00 | 0.13 | 75 | 1006.8 |
| 20260505173745 | 7 | 75 | 1.6 | 1.6 | 0.08 | 0.00 | 0.13 | 75 | 1006.8 |
| 20260505172745 | 7 | 74 | 1.6 | 1.6 | 0.08 | 0.00 | 0.13 | 79 | 1007.1 |
| 20260505171745 | 7 | 117 | 1.6 | 1.6 | 0.08 | 0.00 | 0.13 | 77 | 1006.8 |
| 20260505170744 | 7 | 81 | 1.6 | 1.6 | 0.05 | 0.00 | 0.10 | 77 | 1006.8 |
| 20260505165745 | 7 | 39 | 1.6 | 1.6 | 0.05 | 0.00 | 0.08 | 76 | 1006.8 |
| 20260505165245 | 7 | 49 | 1.6 | 1.6 | 0.03 | 0.00 | 0.08 | 76 | 1006.8 |
| 20260505164245 | 7 | 142 | 1.6 | 1.6 | 0.03 | 0.00 | 0.05 | 75 | 1007.1 |
| 20260505163745 | 7 | 66 | 1.6 | 1.6 | 0.03 | 0.00 | 0.05 | 74 | 1007.1 |
| 20260505162745 | 8 | 83 | 3.2 | 3.2 | 0.03 | 0.00 | 0.03 | 72 | 1007.1 |
| 20260505162245 | 8 | 19 | 3.2 | 3.2 | 0.03 | 0.00 | 0.03 | 73 | 1007.1 |
| 20260505161745 | 8 | 28 | 3.2 | 3.2 | 0.03 | 0.00 | 0.03 | 71 | 1007.5 |
| 20260505160744 | 8 | 39 | 3.2 | 3.2 | 0.03 | 0.00 | 0.03 | 70 | 1007.1 |
| 20260505153245 | 8 | 48 | 3.2 | 3.2 | 0.00 | 0.00 | 0.03 | 67 | 1006.4 |
| 20260505152246 | 8 | 47 | 3.2 | 3.2 | 0.00 | 0.00 | 0.03 | 66 | 1006.1 |
| 20260505151744 | 8 | 50 | 3.2 | 3.2 | 0.00 | 0.00 | 0.03 | 65 | 1006.1 |
| 20260505150745 | 8 | 43 | 3.2 | 3.2 | 0.00 | 0.00 | 0.03 | 64 | 1006.4 |
| 20260505140245 | 8 | 28 | 4.8 | 4.8 | 0.00 | 0.00 | 0.00 | 69 | 1005.8 |
| 20260505124746 | 8 | 26 | 4.8 | 4.8 | 0.00 | 0.00 | 0.00 | 74 | 1004.7 |
| 20260505123746 | 8 | 37 | 3.2 | 3.2 | 0.00 | 0.00 | 0.00 | 75 | 1004.4 |
| 20260505123245 | 8 | 26 | 4.8 | 4.8 | 0.00 | 0.00 | 0.00 | 75 | 1004.1 |
| 20260505122246 | 8 | 26 | 3.2 | 3.2 | 0.00 | 0.00 | 0.00 | 76 | 1004.1 |
| 20260505121246 | 8 | 23 | 3.2 | 3.2 | 0.00 | 0.00 | 0.00 | 75 | 1004.1 |
| 20260505120746 | 8 | 39 | 3.2 | 3.2 | 0.00 | 0.00 | 0.00 | 75 | 1004.1 |
| 20260505120245 | 8 | 20 | 3.2 | 3.2 | 0.00 | 0.00 | 0.00 | 75 | 1003.7 |
| 20260505115245 | 8 | 22 | 3.2 | 3.2 | 0.00 | 0.00 | 0.00 | 75 | 1003.7 |
| 20260505114245 | 8 | 35 | 3.2 | 3.2 | 0.00 | 0.00 | 0.00 | 74 | 1003.4 |
| 20260505113745 | 7 | 40 | 3.2 | 3.2 | 0.00 | 0.00 | 0.00 | 75 | 1003.4 |
| 20260505112745 | 7 | 20 | 4.8 | 4.8 | 0.00 | 0.00 | 0.00 | 75 | 1003.0 |
| 20260505112245 | 7 | 18 | 4.8 | 4.8 | 0.00 | 0.00 | 0.00 | 75 | 1003.4 |
| 20260505111245 | 8 | 29 | 3.2 | 3.2 | 0.00 | 0.00 | 0.00 | 74 | 1003.0 |
| 20260505110246 | 8 | 34 | 3.2 | 3.2 | 0.00 | 0.00 | 0.00 | 75 | 1002.7 |
| 20260505101747 | 8 | 30 | 6.4 | 6.4 | 0.00 | 0.00 | 0.00 | 81 | 1001.7 |
| 20260505101245 | 8 | 27 | 4.8 | 4.8 | 0.00 | 0.00 | 0.00 | 82 | 1001.7 |
| 20260505100246 | 8 | 24 | 3.2 | 3.2 | 0.00 | 0.00 | 0.00 | 83 | 1001.7 |
| 20260505095245 | 13 | 30 | 1.6 | 1.6 | 0.00 | 0.00 | 0.00 | 77 | 1001.4 |
| 20260505094746 | 15 | 31 | 1.6 | 1.6 | 0.00 | 0.00 | 0.00 | 75 | 1000.7 |
| 20260505094246 | 15 | 347 | 1.6 | 1.6 | 0.00 | 0.00 | 0.00 | 74 | 1000.3 |
| 20260505093247 | 15 | 244 | 1.6 | 1.6 | 0.00 | 0.00 | 0.00 | 74 | 1000.3 |
| 20260505092746 | 15 | 266 | 1.6 | 1.6 | 0.00 | 0.00 | 0.00 | 73 | 1000.3 |
| 20260505091745 | 16 | 263 | 3.2 | 3.2 | 0.00 | 0.00 | 0.00 | 73 | 999.7 |
| 20260505090746 | 16 | 229 | 3.2 | 3.2 | 0.00 | 0.00 | 0.00 | 72 | 999.7 |
| 20260505090246 | 16 | 246 | 3.2 | 3.2 | 0.00 | 0.00 | 0.00 | 72 | 999.3 |
| 20260505085245 | 16 | 239 | 3.2 | 3.2 | 0.00 | 0.00 | 0.00 | 72 | 999.3 |
| 20260505084246 | 16 | 259 | 3.2 | 3.2 | 0.00 | 0.00 | 0.00 | 72 | 999.3 |
| 20260505083247 | 16 | 243 | 3.2 | 3.2 | 0.00 | 0.00 | 0.00 | 72 | 999.0 |
| 20260505082746 | 16 | 254 | 3.2 | 3.2 | 0.00 | 0.00 | 0.00 | 72 | 999.0 |
| 20260505082246 | 16 | 242 | 3.2 | 3.2 | 0.00 | 0.00 | 0.00 | 71 | 999.0 |
| 20260505081246 | 16 | 251 | 3.2 | 3.2 | 0.00 | 0.00 | 0.00 | 71 | 998.6 |
| 20260505080745 | 16 | 243 | 3.2 | 3.2 | 0.00 | 0.00 | 0.00 | 71 | 998.6 |
| 20260505075745 | 16 | 243 | 3.2 | 3.2 | 0.00 | 0.00 | 0.00 | 71 | 998.6 |
| 20260505074745 | 16 | 257 | 3.2 | 3.2 | 0.00 | 0.00 | 0.00 | 71 | 998.6 |
| 20260505073746 | 16 | 260 | 3.2 | 3.2 | 0.00 | 0.00 | 0.00 | 70 | 998.6 |
| 20260505073246 | 17 | 245 | 3.2 | 3.2 | 0.00 | 0.00 | 0.00 | 70 | 998.3 |
| 20260505072746 | 17 | 260 | 3.2 | 3.2 | 0.00 | 0.00 | 0.00 | 69 | 998.3 |
| 20260505071746 | 17 | 247 | 4.8 | 4.8 | 0.00 | 0.00 | 0.00 | 68 | 998.6 |
| 20260505070747 | 17 | 296 | 4.8 | 4.8 | 0.00 | 0.00 | 0.00 | 68 | 998.6 |